Location: Besendorf
(46.8833°N, 15.5833°E)
Time: 11:59:49
(UTC+00:00)

Daily predictions for brighter satellites

Satellite Brightness Start Highest point End
(mag) Time Altitude Azimuth Time Altitude Azimuth Time Altitude Azimuth
ATLAS 3B R/B 3.0 18:54:11 10° NW 19:01:15 69° NE 19:08:35 10° SE
Cosmos 2279 Rocket 4.1 18:55:28 10° N 19:01:41 89° W 19:07:54 10° S
BREEZE M DEB (TANK) 4.4 19:02:48 10° SSE 19:05:26 17° ESE 19:11:17 10° ENE
SAR-Lupe-1 4.1 19:01:55 10° NNE 19:05:31 90° NW 19:09:05 10° SSW
Cosmos 773 Rocket 4.0 19:00:53 10° SSW 19:06:04 75° ESE 19:11:14 10° NNE
Cosmos 1833 Rocket 3.2 19:00:45 10° SW 19:06:21 67° WNW 19:12:00 10° NNE
SAR-Lupe-4 3.5 19:03:04 10° NNE 19:06:41 82° ESE 19:10:16 10° SSW
OBJECT-B 2.5 19:05:22 10° SSW 19:08:18 34° W 19:11:17 10° NNW
Cosmos 2082 Rocket 2.2 19:07:18 10° SSW 19:12:54 74° ESE 19:18:34 10° NNE
SJ-6B 4.0 19:09:25 10° S 19:12:56 41° W 19:16:30 10° NNW
Terra 3.9 19:10:48 10° E 19:13:08 14° ENE 19:15:29 10° NNE
SPOT 5 4.5 19:12:32 10° E 19:15:17 17° ENE 19:18:04 10° NNE
Cosmos 1842 Rocket 3.7 19:10:56 10° N 19:15:27 85° W 19:19:56 10° S
Cosmos 2278 3.8 19:10:44 10° NNW 19:16:26 78° ENE 19:22:05 10° SSE
Resurs 1-3 3.9 19:13:55 10° S 19:18:17 72° WSW 19:22:41 10° NNW
Cosmos 2360 Rocket 4.0 19:18:56 10° N 19:23:02 20° NE 19:27:07 10° E
Cosmos 1633 2.5 19:19:42 10° S 19:23:17 68° E 19:26:54 10° NNE
ERS-1 Rocket 4.4 19:20:54 10° ESE 19:24:52 24° ENE 19:28:52 10° N
Cosmos 332 Rocket 4.3 19:21:01 10° NNW 19:25:46 47° ENE 19:30:17 11° SE
Cosmos 158 Rocket 4.4 19:22:05 10° S 19:26:54 42° ESE 19:31:52 10° NE
Cosmos 1606 3.0 19:27:08 10° NNW 19:30:53 69° W 19:34:39 10° S
Nadezhda 4 Rocket 4.0 19:25:44 10° S 19:31:52 73° E 19:38:05 10° NNE
Cosmos 2333 Rocket 4.4 19:29:53 10° N 19:32:53 14° NE 19:35:52 10° ENE
GP-B 4.1 19:31:31 10° NNE 19:35:27 30° E 19:38:46 13° SE
Landsat 7 3.8 19:32:51 10° SSE 19:37:37 89° W 19:42:25 10° NNW
Spot 2 Rocket 4.1 19:34:37 12° SE 19:39:05 43° ENE 19:43:54 10° N
SPOT 3 Rocket 3.6 19:34:04 10° SSE 19:39:18 84° ENE 19:44:34 10° NNW
ISS -3.7 19:37:02 10° WNW 19:40:25 73° SSW 19:42:58 16° SE
IGS 5A 3.7 19:36:44 10° S 19:40:51 71° WSW 19:45:01 10° NNW
BREEZE-M DEB (TANK) 3.5 19:33:38 10° W 19:44:29 69° N 19:47:47 10° ENE
Cosmos 1980 Rocket 2.8 19:39:30 10° NW 19:44:58 54° WSW 19:50:27 10° S
MetOp-B 4.1 19:40:22 10° SSE 19:45:43 83° ENE 19:51:07 10° NNW
CZ-2C R/B 3.9 19:42:41 10° NNE 19:47:07 51° E 19:51:27 10° S
Cosmos 2221 4.1 19:45:48 10° NNW 19:49:42 34° W 19:53:36 10° SSW
RESURS DK-1 3.6 19:47:21 10° SW 19:51:22 47° WNW 19:55:24 10° NNE
USA 245 3.8 19:47:53 12° SSE 19:52:33 68° ENE 19:56:44 10° N
Meteor 2-15 4.4 19:48:33 10° N 19:54:38 89° W 20:00:42 10° S
BREEZE-M DEB (TANK) 3.5 19:51:35 10° SW 19:55:15 69° SSE 20:08:23 10° ENE
Cosmos 2322 Rocket 2.7 19:50:24 10° NNW 19:55:50 46° NE 19:59:58 17° SE
Cosmos 304 Rocket 3.7 19:55:27 10° NNW 20:00:17 87° ENE 20:03:55 17° SSE
BREEZE-M DEB (TANK) 3.8 19:57:59 10° WNW 20:01:22 65° SSW 20:09:24 15° SE
Cosmos 1933 3.3 19:57:18 10° N 20:01:23 86° E 20:04:32 16° S
Cosmos 1538 Rocket 4.2 19:56:45 10° SSW 20:01:57 74° WNW 20:07:09 10° NNE
Resurs 01 Rocket 2.7 19:59:21 10° S 20:03:35 43° W 20:07:51 10° NNW
ERS-2 3.8 20:01:52 10° N 20:05:13 35° WNW 20:08:33 10° SW
Cosmos 2151 3.1 20:01:50 10° SSW 20:06:04 77° W 20:10:22 10° N
Cosmos 1553 Rocket 4.5 20:01:11 10° N 20:06:58 44° ENE 20:10:56 19° SE
Cosmos 2098 Rocket 4.0 20:04:34 10° SW 20:07:28 36° WNW 20:10:54 10° N
JB-3 4.3 20:05:52 10° NNE 20:10:02 79° ESE 20:13:56 11° S
Gbstr 26 Del rocket 2.6 20:06:48 10° WNW 20:10:33 87° SSW 20:12:56 23° ESE
Meteor 2-3 Rocket 3.7 20:05:35 10° S 20:11:14 84° E 20:17:00 10° NNE
CARTOSAT-1 3.5 20:09:29 19° SSE 20:12:31 82° ENE 20:16:52 10° NNW
Meteor 2-15 Rocket 4.5 20:06:41 10° N 20:12:48 83° W 20:18:12 13° S
Cosmos 2084 4.2 20:12:29 24° SSE 20:13:36 28° ESE 20:17:09 10° ENE
Cosmos 2219 Rocket 4.0 20:12:53 10° N 20:17:04 21° NE 20:21:13 10° E
Cosmos 1862 4.2 20:21:25 27° ESE 20:22:34 32° E 20:26:07 10° NNE
SL-16 R/B 2.2 20:18:44 10° NNW 20:24:27 88° WSW 20:28:03 23° SSE
COSMOS 2455 4.2 20:26:04 18° ESE 20:26:31 18° ESE 20:30:24 10° ENE
Cosmos 1782 2.8 20:23:47 10° N 20:27:50 82° W 20:30:03 25° S
Cosmos 1515 Rocket 4.5 20:23:50 10° N 20:27:56 34° ENE 20:29:35 26° ESE
Cosmos 2237 4.4 20:22:45 10° NNW 20:28:27 62° ENE 20:31:46 25° SE
ARIANE 5 R/B 2.7 20:26:51 23° S 20:29:37 82° WSW 20:34:07 10° NNW
H-2A R/B 4.5 20:26:27 10° NE 20:30:06 28° E 20:30:49 26° ESE
COSMOS 2428 4.4 20:27:06 10° N 20:31:31 22° NE 20:35:35 11° E
Meteor 2-6 Rocket 4.3 20:28:29 10° N 20:33:52 59° ENE 20:36:40 28° SE
Cosmos 1271 Rocket 3.5 20:30:32 10° NNW 20:34:23 49° W 20:36:55 20° SSW
Cosmos 1809 Rocket 4.4 20:30:11 17° S 20:34:57 71° E 20:41:05 10° NNE
S3M 4.4 20:31:03 10° N 20:37:17 51° ENE 20:40:44 26° SE
USA 276 2.3 20:35:06 10° WNW 20:38:11 53° SSW 20:38:32 49° S
BREEZE-M DEB (TANK) 3.4 20:35:51 10° W 20:39:15 47° SSW 20:43:14 24° SE
Cosmos 1766 Rocket 3.5 20:37:42 23° S 20:40:27 88° ESE 20:44:53 10° N
Cosmos 1151 Rocket 3.1 20:37:05 10° NNW 20:41:26 77° W 20:43:40 28° S
ATLAS 5 CENTAUR R/B 3.9 20:39:16 10° NNW 20:43:36 25° NNE 20:48:34 10° E
Cosmos 1328 Rocket 3.5 20:41:13 10° N 20:45:42 90° N 20:47:40 33° S
Cosmos 923 Rocket 4.4 20:43:02 10° SSW 20:48:21 67° WNW 20:53:42 10° NNE
Terra 1.8 20:47:56 32° SSE 20:50:12 89° W 20:54:59 10° NNW
ATLAS 3B R/B 4.0 20:45:25 10° NW 20:51:34 32° WSW 20:56:42 15° SSW
SPOT 5 3.0 20:50:48 28° S 20:52:55 58° W 20:57:16 10° NNW
USA 267 3.6 20:47:16 10° ENE 20:53:24 41° SE 20:59:01 12° SSW
Meteor 1-27 Rocket 4.2 20:54:06 10° N 20:59:33 47° ENE 21:01:49 31° SE
Cosmos 2056 Rocket 3.5 20:54:30 10° NNW 20:59:54 86° WSW 21:02:09 36° SSE
Meteor 2-21 Rocket 4.4 20:56:51 27° S 21:00:19 72° E 21:06:29 10° NNE
NOSS 2-1 (C) 2.6 21:00:51 71° SSE 21:01:00 74° SE 21:04:20 10° NE
ERS-1 Rocket 3.6 21:00:35 24° SSW 21:03:21 50° W 21:08:16 10° NNW
BREEZE-M DEB (TANK) 3.2 21:01:50 10° WNW 21:03:12 32° NW 21:03:12 32° NW
SL-27 R/B 2.3 21:06:23 67° SSE 21:06:46 77° ESE 21:10:23 10° NNE
Meteor 2-21 4.5 21:02:38 21° SSW 21:07:00 81° W 21:13:12 10° N
Cosmos 2360 Rocket 2.1 21:02:09 10° NNW 21:07:49 88° WSW 21:10:08 38° SSE
NOSS 2-1 (D) 2.7 21:08:17 67° SW 21:08:41 90° ESE 21:12:04 10° NE
ISS -1.2 21:15:06 10° WSW 21:15:56 12° WSW 21:15:56 12° WSW
Cosmos 1833 4.2 21:14:09 30° S 21:17:05 71° ESE 21:22:52 10° NNE
Cosmos 2333 Rocket 2.5 21:12:50 10° NNW 21:18:26 59° ENE 21:20:38 35° ESE
Meteor 1-10 Rocket 4.2 21:15:04 10° NNW 21:20:38 77° W 21:22:51 37° S
Cosmos 1812 3.8 21:18:24 10° NNW 21:22:00 37° W 21:23:04 31° SW
Cosmos 1500 Rocket 3.5 21:22:35 56° SSE 21:23:19 69° E 21:27:44 10° NNE
Cosmos 1680 Rocket 4.5 21:18:32 10° SW 21:23:36 46° WNW 21:28:40 10° NNE
Cosmos 972 Rocket 4.3 21:23:45 43° SE 21:24:43 48° ESE 21:29:35 10° NNE
USA 234 3.7 21:22:43 16° ESE 21:27:58 61° NNE 21:34:25 10° NW
IRIDIUM 103 4.4 21:23:32 10° N 21:28:44 65° E 21:30:05 47° SE
Cosmos 2322 3.8 21:23:03 10° NNW 21:28:47 67° ENE 21:30:49 40° SE
COBE Rocket 4.0 21:29:38 48° ESE 21:30:36 59° ENE 21:35:13 10° N
Cosmos 292 Rocket 3.8 21:27:51 10° NNW 21:32:37 72° WSW 21:33:40 52° S
Cosmos 2297 Rocket 4.2 21:35:24 12° E 21:35:24 12° E 21:37:07 10° ENE
Cosmos 2237 Rocket 3.8 21:34:10 10° N 21:38:55 26° NE 21:42:15 16° E
Cosmos 2322 Rocket 3.4 21:34:49 10° NW 21:39:41 31° WSW 21:41:46 24° SW
Cosmos 1743 Rocket 3.6 21:42:22 56° SSW 21:43:15 77° W 21:47:43 10° N
Cosmos 2285 Rocket 4.0 21:39:12 10° NNW 21:45:31 75° ENE 21:47:43 43° SE
Cosmos 2227 Rocket 4.3 21:47:05 11° E 21:47:05 11° E 21:48:17 10° ENE
IRIDIUM 106 4.2 21:41:46 10° N 21:47:01 89° W 21:48:18 53° S
Meteor 1-25 Rocket 4.4 21:47:59 46° SE 21:49:02 53° E 21:54:27 10° NNE
Cosmos 2315 Rocket 4.0 21:43:42 10° N 21:50:04 87° W 21:52:17 44° S
Sich 1 3.1 21:51:50 59° E 21:51:52 59° E 21:56:09 10° NNE
Cosmos 494 Rocket 4.3 21:53:17 46° ESE 21:53:28 46° ESE 21:58:22 10° NNE
Cosmos 1633 Rocket 4.2 21:56:02 31° E 21:56:02 31° E 21:59:37 10° NNE
Okean 1 4.1 21:52:25 10° N 21:56:09 40° ENE 21:56:09 40° ENE
Cosmos 2266 Rocket 4.3 21:53:29 30° SSW 21:56:30 62° WNW 22:02:41 10° N
Cosmos 1666 Rocket 4.2 21:59:59 42° E 21:59:59 42° E 22:04:01 10° NNE
Cosmos 1048 Rocket 3.8 21:59:25 61° SSE 22:00:04 69° ESE 22:05:10 10° NNE
Cosmos 2219 Rocket 2.1 21:56:06 10° NNW 22:01:44 83° WSW 22:02:58 56° SSE
Cosmos 2228 Rocket 3.3 22:01:21 10° NNW 22:05:41 58° W 22:06:05 56° WSW
SL-16 R/B 4.5 22:01:59 10° N 22:05:48 18° NE 22:09:35 10° E
Meteor 1-19 Rocket 4.3 22:00:22 10° N 22:05:58 62° ENE 22:07:11 49° SE
BREEZE-M DEB (TANK) 4.3 21:53:34 10° SW 22:06:53 54° SSE 22:11:11 10° E
SL-16 R/B 4.3 22:04:49 10° WNW 22:07:41 14° W 22:09:55 11° WSW
NOSS 3-1 (C) 4.2 22:03:48 10° NW 22:11:17 66° WSW 22:14:30 40° S
COSMOS 2455 2.8 22:09:10 37° SW 22:11:40 85° WNW 22:17:44 10° NNE
COSMOS 2428 2.6 22:10:45 10° NNW 22:16:29 78° WSW 22:17:35 58° S
Cosmos 1602 3.9 22:17:48 68° NNE 22:17:48 68° NNE 22:21:12 10° N
APEX 4.4 22:20:21 50° SE 22:20:58 53° ESE 22:27:16 10° NE
Cosmos 1515 4.0 22:17:32 10° NNW 22:20:48 61° NW 22:20:48 61° NW
Spot 4 4.0 22:21:45 54° SW 22:22:14 56° W 22:27:01 10° NNW
Cosmos 1862 Rocket 3.9 22:18:38 10° N 22:22:56 54° ENE 22:22:56 54° ENE
Cosmos 1745 Rocket 4.5 22:23:42 40° ESE 22:25:03 46° E 22:31:00 10° NNE
USA 229 DEB 3.8 22:18:10 10° NW 22:25:31 79° SW 22:28:16 44° SSE
USA 229 3.8 22:18:16 10° NW 22:25:37 79° SW 22:28:23 44° SSE
Terra 4.3 22:27:14 10° WSW 22:28:38 11° W 22:30:02 10° WNW
ATLAS 5 CENTAUR R/B 2.2 22:23:20 10° NW 22:28:53 87° NE 22:30:39 50° SE
COSMOS 2487 3.9 22:31:49 33° NW 22:31:49 33° NW 22:34:40 10° N
Cosmos 1452 Rocket 4.1 22:27:21 10° NW 22:32:16 41° WSW 22:32:49 40° WSW
Cosmos 1707 Rocket 3.6 22:28:01 10° NNW 22:32:18 68° W 22:32:18 68° W
ALOS 2 2.6 22:33:57 71° W 22:33:57 71° W 22:38:19 10° NNW
Thor Agena Rocket 4.3 22:29:21 10° NNE 22:34:01 36° E 22:34:07 36° E
USA 267 3.4 22:30:10 10° NE 22:36:41 72° NNW 22:43:12 10° WSW
Cosmos 2219 4.0 22:40:38 34° ESE 22:40:49 35° ESE 22:45:58 10° NE
Nadezhda 1 Rocket 4.1 22:36:17 10° N 22:42:42 71° E 22:44:26 49° SE
Cosmos 1666 3.6 22:44:25 42° NE 22:44:25 42° NE 22:47:22 10° NNE
SL-08 ROCKET BODY 4.4 22:44:13 54° SSW 22:45:44 81° W 22:51:55 10° N
NOSS 3-1 (A) 4.1 22:38:29 10° NW 22:45:58 65° WSW 22:48:48 44° S
Meteor 2-9 4.5 22:46:15 66° SSE 22:46:56 76° E 22:52:23 10° NNE
Cosmos 2360 Rocket 4.2 22:48:09 10° WNW 22:50:57 14° W 22:51:53 13° WSW
Cosmos 1110 Rocket 4.4 22:53:17 10° NNW 22:58:23 47° WSW 22:58:40 47° WSW
Cosmos 1980 3.6 22:54:40 10° NNW 23:00:22 88° WSW 23:01:19 63° SSE
Cosmos 2333 Rocket 3.6 22:57:51 10° NW 23:02:16 24° WSW 23:02:38 24° WSW
Cosmos 1331 Rocket 4.4 22:58:48 10° NNW 23:03:48 46° WSW 23:03:58 46° WSW
Meteor 2-17 Rocket 4.4 23:05:18 56° SSE 23:06:33 74° E 23:12:36 10° NNE
CZ-2D R/B 4.3 23:04:57 10° ENE 23:07:29 13° E 23:09:04 12° ESE
USA 234 3.3 23:10:02 50° SSW 23:11:03 54° SW 23:17:28 10° WNW
SL-16 R/B 4.4 23:06:46 10° ESE 23:11:28 24° ENE 23:16:13 10° N
Nimbus 7 Rocket 4.5 23:06:24 10° NNE 23:12:25 72° WNW 23:14:02 49° SW
Cosmos 1340 Rocket 3.3 23:13:35 56° NE 23:13:35 56° NE 23:16:51 10° NNE
NOSS 0 Rocket 4.2 23:09:12 10° NW 23:15:13 51° WSW 23:16:01 48° SW
Cosmos 2297 Rocket 2.1 23:17:11 64° S 23:18:02 79° ESE 23:23:44 10° NNE
Okean 1-7 3.1 23:14:49 10° N 23:18:54 70° ENE 23:18:54 70° ENE
Lacrosse 5 1.8 23:21:59 69° SE 23:21:59 69° SE 23:26:57 10° NE
Cosmos 2237 Rocket 2.2 23:17:48 10° NNW 23:23:26 64° WSW 23:24:02 59° SW
Cosmos 1869 Rocket 4.3 23:23:27 43° E 23:23:30 43° E 23:27:45 10° NNE
Cosmos 2084 Rocket 4.1 23:21:00 10° NW 23:24:08 45° WNW 23:24:08 45° WNW
Cosmos 2242 Rocket 3.5 23:20:46 10° N 23:25:08 83° ENE 23:25:08 83° ENE
NOSS 2-2 (E) 4.4 23:21:03 10° NW 23:26:33 73° SW 23:28:32 48° SSE
Cosmos 2181 Rocket 4.3 23:22:23 10° N 23:28:40 60° ENE 23:30:50 39° SE
Cosmos 1470 Rocket 4.1 23:29:03 47° WNW 23:29:03 47° WNW 23:33:14 10° N
Cosmos 2227 Rocket 2.1 23:28:53 62° S 23:29:44 74° ESE 23:35:24 10° NNE
Cosmos 909 Rocket 4.2 23:31:45 50° S 23:33:30 70° ESE 23:41:08 10° NE
Cosmos 1933 Rocket 3.7 23:35:34 63° W 23:35:37 64° W 23:40:04 10° N
Timation 1 Rocket 4.3 23:41:04 56° S 23:42:16 73° ESE 23:48:16 10° NNE
Meteor 1-11 Rocket 3.6 23:41:19 61° S 23:42:20 81° E 23:47:52 10° NNE
Cosmos 2219 Rocket 4.2 23:42:24 10° WNW 23:44:40 13° W 23:44:40 13° W
Cosmos 2263 Rocket 3.9 23:46:36 19° ESE 23:48:00 21° E 23:52:06 10° NE
NOSS 2-2 (C) 4.5 23:45:21 10° NW 23:50:45 62° SW 23:52:23 48° S
SL-16 R/B 2.2 23:45:09 10° NNW 23:50:52 80° ENE 23:52:42 45° SE
ADEOS Rocket 4.3 23:47:09 12° ESE 23:51:19 30° ENE 23:56:03 10° N
Cosmos 1992 Rocket 3.9 23:46:05 10° NNW 23:51:20 81° WSW 23:52:06 65° S
PSLV R/B 4.2 23:46:56 10° N 23:51:34 51° WNW 23:52:12 47° W
Resurs 1-4 Rocket 3.3 23:49:02 10° NNE 23:53:46 32° E 23:55:13 28° SE
